| time (UTC) | temp C | wind direction | speed KPH | gust KPH | rain 1hr cm | rain 24hr cm | rain mn cm | humidity % | barometer mb |
| 20260506045026 | 7 | 199 | 1.6 | 4.8 | 0.00 | 0.23 | 0.00 | 74 | 1009.2 |
| 20260506042026 | 7 | 213 | 0.0 | 3.2 | 0.00 | 0.23 | 0.00 | 67 | 1008.8 |
| 20260506035021 | 8 | 207 | 1.6 | 9.7 | 0.00 | 0.23 | 0.23 | 63 | 1008.8 |
| 20260506032029 | 8 | 167 | 3.2 | 11.3 | 0.00 | 0.23 | 0.23 | 62 | 1008.7 |
| 20260506030358 | 8 | 160 | 1.6 | 6.4 | 0.00 | 0.23 | 0.23 | 62 | 1008.7 |
| 20260506022021 | 8 | 167 | 0.0 | 6.4 | 0.00 | 0.23 | 0.23 | 61 | 1008.3 |
| 20260506015021 | 8 | 211 | 0.0 | 8.0 | 0.00 | 0.23 | 0.23 | 57 | 1007.9 |
| 20260506012021 | 9 | 221 | 3.2 | 11.3 | 0.00 | 0.23 | 0.23 | 56 | 1007.7 |
| 20260506005023 | 10 | 268 | 4.8 | 19.3 | 0.00 | 0.23 | 0.23 | 57 | 1007.5 |
| 20260506003402 | 10 | 273 | 6.4 | 14.5 | 0.00 | 0.23 | 0.23 | 60 | 1006.9 |
| 20260506000430 | 10 | 230 | 8.0 | 17.7 | 0.00 | 0.23 | 0.23 | 64 | 1006.7 |
| 20260505232015 | 10 | 250 | 8.0 | 20.9 | 0.03 | 0.23 | 0.23 | 72 | 1006.2 |
| 20260505225015 | 10 | 234 | 11.3 | 38.6 | 0.03 | 0.23 | 0.23 | 73 | 1006.0 |
| 20260505222015 | 12 | 226 | 19.3 | 38.6 | 0.00 | 0.20 | 0.20 | 59 | 1005.5 |
| 20260505215015 | 13 | 264 | 17.7 | 41.8 | 0.00 | 0.20 | 0.20 | 54 | 1004.8 |
| 20260505212015 | 14 | 246 | 16.1 | 35.4 | 0.00 | 0.20 | 0.20 | 54 | 1004.1 |
| 20260505205015 | 15 | 238 | 14.5 | 32.2 | 0.00 | 0.20 | 0.20 | 57 | 1003.6 |
| 20260505203357 | 15 | 217 | 14.5 | 25.7 | 0.00 | 0.20 | 0.20 | 63 | 1002.9 |
| 20260505200403 | 15 | 218 | 9.7 | 20.9 | 0.00 | 0.20 | 0.20 | 77 | 1002.3 |
| 20260505192015 | 14 | 244 | 9.7 | 19.3 | 0.03 | 0.20 | 0.20 | 83 | 1002.3 |
| 20260505185014 | 14 | 255 | 11.3 | 25.7 | 0.15 | 0.20 | 0.20 | 84 | 1002.2 |
| 20260505182019 | 16 | 281 | 17.7 | 38.6 | 0.15 | 0.18 | 0.18 | 79 | 1002.1 |
| 20260505175015 | 19 | 210 | 17.7 | 33.8 | 0.00 | 0.05 | 0.05 | 60 | 1001.0 |
| 20260505172015 | 19 | 251 | 16.1 | 38.6 | 0.00 | 0.05 | 0.05 | 64 | 1000.8 |
| 20260505165014 | 18 | 229 | 22.5 | 53.1 | 0.00 | 0.05 | 0.05 | 62 | 1000.8 |
| 20260505162016 | 19 | 222 | 22.5 | 43.5 | 0.00 | 0.05 | 0.05 | 61 | 1000.6 |
| 20260505152015 | 18 | 214 | 16.1 | 30.6 | 0.00 | 0.05 | 0.05 | 65 | 1000.2 |
| 20260505151829 | 17 | 179 | 17.7 | 33.8 | 0.00 | 0.05 | 0.05 | 67 | 1000.1 |
| 20260505125013 | 14 | 202 | 8.0 | 19.3 | 0.00 | 0.05 | 0.05 | 78 | 1000.0 |
| 20260505122011 | 13 | 204 | 8.0 | 20.9 | 0.00 | 0.05 | 0.05 | 78 | 999.8 |
| 20260505115012 | 13 | 167 | 4.8 | 27.4 | 0.00 | 0.05 | 0.05 | 79 | 1000.0 |
| 20260505113439 | 13 | 182 | 6.4 | 16.1 | 0.00 | 0.05 | 0.05 | 79 | 999.8 |
| 20260505102012 | 12 | 160 | 3.2 | 11.3 | 0.00 | 0.05 | 0.05 | 80 | 999.7 |
| 20260505095011 | 12 | 236 | 6.4 | 16.1 | 0.00 | 0.05 | 0.05 | 78 | 999.8 |
| 20260505092011 | 13 | 171 | 3.2 | 11.3 | 0.00 | 0.10 | 0.05 | 78 | 999.2 |
| 20260505085011 | 13 | 219 | 4.8 | 14.5 | 0.00 | 0.10 | 0.05 | 77 | 999.5 |
| 20260505082011 | 13 | 198 | 4.8 | 16.1 | 0.00 | 0.10 | 0.05 | 75 | 999.7 |
| 20260505075009 | 13 | 169 | 6.4 | 27.4 | 0.00 | 0.10 | 0.05 | 74 | 999.8 |
| 20260505072010 | 12 | 170 | 6.4 | 17.7 | 0.05 | 0.10 | 0.05 | 75 | 999.9 |
| 20260505065009 | 10 | 155 | 0.0 | 9.7 | 0.05 | 0.10 | 0.05 | 74 | 999.8 |
| 20260505063400 | 11 | 200 | 3.2 | 11.3 | 0.00 | 0.05 | 0.00 | 70 | 999.8 |
| 20260505055009 | 10 | 166 | 1.6 | 6.4 | 0.00 | 0.05 | 0.00 | 69 | 1000.2 |
| 20260505052009 | 10 | 155 | 0.0 | 3.2 | 0.00 | 0.15 | 0.00 | 71 | 1000.4 |